Flag for U.S.A. Weather past 2 weeks in Idaho Falls, Idaho, U.S.A.

Now
52 °F

Passing clouds.


Feels Like: 47 °F
Forecast: 31 / 59 °F
Wind: 14 mph from Southwest

Location: Fanning Field

Current Time: Mar 26, 2015 at 1:30:29 PM

Latest Report: Mar 26, 2015 at 12:53 PM


Visibility: 10 mi

Pressure: 30.39 "Hg

Humidity: 45%

Dew point: 31 °F

Location of Idaho FallsLocation

Historic Weather in Idaho Falls — Graph

°F

Idaho Falls temperature yesterday

Maximum temperature yesterday: 49 °F (at 3:53 PM)
Minimum temperature yesterday: 25 °F (at 6:53 AM)
Average temperature yesterday: 38 °F

Past Weeks' High & Low Weather Summary

 TemperatureHumidityPressure
High68 °F (Mar 15, 1:53 PM)96% (Mar 24, 9:53 AM)30.51 "Hg (Mar 24, 9:53 AM)
Low24 °F (Mar 13, 7:53 AM)9% (Mar 22, 3:53 PM)29.85 "Hg (Mar 23, 5:53 AM)
Average47 °F51%30.13 "Hg
* Reported Mar 11 11:53 AM — Mar 26 11:53 AM, Idaho Falls, Weather by CustomWeather, © 2015

Note: Actual official high and low records may vary slightly from our data, if they occured in-between our weather recording intervals... More about our weather records

Advertising

Idaho Falls weather history for previous 24 hours

 ConditionsComfort  
Time TempWeatherWind HumidityBarometerVisibility
11:53 AM
Thu, Mar 26
50 °FSunny.17 mph52%30.39 "Hg10 mi
10:53 AM46 °FSunny.15 mph63%30.42 "Hg10 mi
9:53 AM40 °FScattered clouds.15 mph77%30.44 "Hg10 mi
8:53 AM35 °FPassing clouds.7 mph82%30.44 "Hg10 mi
7:53 AM31 °FPassing clouds.No wind89%30.45 "Hg10 mi
6:53 AM32 °FPassing clouds.8 mph88%30.42 "Hg10 mi
5:53 AM31 °FClear.10 mph89%30.40 "Hg10 mi
4:53 AM31 °FClear.9 mph85%30.40 "Hg10 mi
3:53 AM36 °FClear.12 mph75%30.38 "Hg10 mi
2:53 AM35 °FClear.9 mph75%30.39 "Hg10 mi
1:53 AM38 °FClear.15 mph63%30.37 "Hg10 mi
12:53 AM37 °FClear.12 mph57%30.38 "Hg10 mi
11:53 PM
Wed, Mar 25
40 °FPassing clouds.16 mph47%30.36 "Hg10 mi
10:53 PM42 °FOvercast.16 mph41%30.38 "Hg10 mi
9:53 PM42 °FPassing clouds.13 mph39%30.39 "Hg10 mi
8:53 PM43 °FSunny.14 mph40%30.38 "Hg10 mi
7:53 PM45 °FSunny.13 mph37%30.36 "Hg10 mi
6:53 PM47 °FBroken clouds.15 mph34%30.36 "Hg10 mi
5:53 PM48 °FBroken clouds.16 mph33%30.34 "Hg10 mi
4:53 PM49 °FBroken clouds.15 mph31%30.35 "Hg10 mi
3:53 PM49 °FBroken clouds.18 mph32%30.34 "Hg10 mi
2:53 PM47 °FPartly sunny.14 mph36%30.37 "Hg10 mi
1:53 PM46 °FBroken clouds.12 mph40%30.37 "Hg10 mi
Weather by CustomWeather, © 2015

See weather overviewHow to use our weather pages